Grand Junction, CO

9:14 AM MDT on October 16, 2019 (GMT -0600)
Walker

Weather History for KGJT - March, 2019

Change the Weather History Date:

Tuesday, March 5, 2019

  Actual Average Record
Temperature  
Mean Temperature 42 °F 41 °F  
Max Temperature 54 °F 53 °F 70 °F (1910)
Min Temperature 29 °F 29 °F 5 °F (1939)
Degree Days  
Heating Degree Days 23 24  
Month to date heating degree days 114 122  
Since 1 July heating degree days 4569 4501  
Cooling Degree Days 0 0  
Month to date cooling degree days 0 0  
Year to date cooling degree days 0 0  
Moisture  
Dew Point 28 °F    
Average Humidity 56    
Maximum Humidity 85    
Minimum Humidity 26    
Precipitation  
Precipitation 0.00 in 0.03 in 0.57 in (1944)
Month to date precipitation 0.72 0.13  
Year to date precipitation 2.16 1.25  
Snow  
Snow 0.00 in 0.10 in 3.50 in (1944)
Month to date snowfall 0.0 0.4  
Since 1 July snowfall 17.4 15.9  
Snow Depth 0.00 in    
Sea Level Pressure  
Sea Level Pressure 30.14 in    
Wind  
Wind Speed 6 mph (ESE)    
Max Wind Speed 16 mph    
Max Gust Speed 21 mph    
Visibility 10 miles    
Events      
T = Trace of Precipitation, MM = Missing Value Source: NWS Daily Summary

Daily Weather History Graph

Daily Weather History Graph

Search for Another Location

Airport or City:

Astronomy

Mar. 05, 2019 Rise Set
Actual Time 6:41 AM MST 6:10 PM MST
Civil Twilight 6:14 AM MST 6:37 PM MST
Nautical Twilight 5:43 AM MST 7:08 PM MST
Astronomical Twilight 5:12 AM MST 7:39 PM MST
Moon 6:30 AM MST (3/5) 5:25 PM MST (3/5)
Length of Visible Light 12h 23m
Length of Day
11h 29m
Waning Crescent, 1% of the Moon is Illuminated
Mar 5
Waning Crescent
Mar 6
New
Mar 14
First Quarter
Mar 20
Full
Mar 27
Last Quarter

Hourly Weather History & Observations

Time (MST) Temp. Windchill Dew Point Humidity Pressure Visibility Wind Dir Wind Speed Gust Speed Precip Events Conditions
12:53 AM 32.0 °F - 26.1 °F 79% 30.17 in 10.0 mi Calm Calm - N/A   Mostly Cloudy
1:53 AM 30.0 °F - 26.1 °F 85% 30.18 in 10.0 mi Calm Calm - N/A   Clear
2:53 AM 30.0 °F - 27.0 °F 88% 30.19 in 10.0 mi Calm Calm - N/A   Clear
3:53 AM 28.9 °F 25.2 °F 25.0 °F 85% 30.20 in 10.0 mi ENE 3.5 mph - N/A   Clear
4:53 AM 30.0 °F - 25.0 °F 82% 30.21 in 10.0 mi Calm Calm - N/A   Clear
5:53 AM 28.9 °F - 24.1 °F 82% 30.24 in 10.0 mi Calm Calm - N/A   Clear
6:53 AM 28.9 °F 20.4 °F 24.1 °F 82% 30.27 in 10.0 mi East 9.2 mph - N/A   Clear
7:53 AM 32.0 °F 24.8 °F 25.0 °F 75% 30.27 in 10.0 mi SE 8.1 mph - N/A   Clear
8:53 AM 36.0 °F 29.6 °F 26.1 °F 67% 30.28 in 10.0 mi ESE 8.1 mph - N/A   Clear
9:53 AM 39.0 °F 34.0 °F 26.1 °F 60% 30.27 in 10.0 mi ESE 6.9 mph - N/A   Clear
10:53 AM 42.1 °F 38.4 °F 26.1 °F 53% 30.25 in 10.0 mi ESE 5.8 mph - N/A   Clear
11:53 AM 45.0 °F 38.9 °F 28.9 °F 53% 30.21 in 10.0 mi ESE 12.7 mph - N/A   Clear
12:53 PM 50.0 °F - 28.9 °F 44% 30.14 in 10.0 mi ESE 11.5 mph 20.7 mph N/A   Clear
1:53 PM 53.1 °F - 25.0 °F 34% 30.09 in 10.0 mi SE 11.5 mph - N/A   Clear
2:53 PM 53.1 °F - 21.9 °F 30% 30.06 in 10.0 mi SSE 10.4 mph - N/A   Clear
3:53 PM 53.1 °F - 19.0 °F 26% 30.06 in 10.0 mi Calm Calm - N/A   Clear
4:53 PM 48.9 °F - 30.9 °F 50% 30.08 in 10.0 mi WNW 13.8 mph - N/A   Partly Cloudy
5:53 PM 46.0 °F 43.1 °F 33.1 °F 61% 30.08 in 10.0 mi NNW 5.8 mph - N/A   Overcast
6:53 PM 45.0 °F 41.8 °F 36.0 °F 71% 30.07 in 10.0 mi NNE 5.8 mph - N/A   Overcast
7:53 PM 46.0 °F - 33.1 °F 61% 30.05 in 10.0 mi Calm Calm - N/A   Overcast
8:53 PM 44.1 °F 42.5 °F 36.0 °F 73% 30.04 in 10.0 mi SE 3.5 mph - N/A   Overcast
9:53 PM 43.0 °F 39.5 °F 35.1 °F 74% 30.02 in 10.0 mi East 5.8 mph - N/A   Overcast
10:53 PM 45.0 °F 41.2 °F 30.9 °F 58% 29.99 in 10.0 mi East 6.9 mph - N/A   Overcast
11:53 PM 44.1 °F 39.5 °F 30.0 °F 58% 29.96 in 10.0 mi East 8.1 mph - N/A   Overcast